Regional Weather Roundup
Issued by NWS Newport/Morehead, NC

Home | Current Version | Previous Version | Text Only | Print | Product List | Glossary On
Versions: 1 2 3 4 5 6 7 8 9 10 11 12 13 14 15 16 17 18 19 20 21 22 23 24 25 26 27 28 29 30 31 32 33 34 35 36 37 38 39 40 41 42 43 44 45 46 47 48 49 50
000
ASUS42 KMHX 012225
RWRMHX
WEATHER ROUNDUP FOR EASTERN NORTH CAROLINA
NATIONAL WEATHER SERVICE NEWPORT/MOREHEAD CITY NC
600 PM EDT TUE SEP 01 2015

NOTE: "FAIR" INDICATES FEW OR NO CLOUDS BELOW 12,000 FEET
WITH NO SIGNIFICANT WEATHER AND/OR OBSTRUCTIONS TO VISIBILITY

NCZ015>017-031-032-045>047-102-103-012300-
NORTH COAST

CITY           SKY/WX    TMP DP  RH WIND       PRES   REMARKS
EDENTON        SUNNY     82  67  60 CALM      30.04S
ELIZABETH CITY MOSUNNY   83  74  74 E7        30.03S
KITTY HAWK     CLEAR     84  71  64 CALM      30.03R
MANTEO         SUNNY     81  72  75 CALM      30.04S

$$

NCZ045>047-081-094-103-104-012300-
CENTRAL COAST

CITY           SKY/WX    TMP DP  RH WIND       PRES   REMARKS
FRISCO         MOSUNNY   82  73  74 NE6       30.04S
SWANQUARTER      N/A     86 N/A N/A W2G8      30.00S

$$

NCZ095-097-098-100-101-012300-
SOUTHERN COAST

CITY           SKY/WX    TMP DP  RH WIND       PRES   REMARKS
BEAUFORT       PTSUNNY   80  75  84 SW13      30.04S
CEDAR ISLAND     N/A     84 N/A N/A NW2       30.09S
JACKSONVILLE   SUNNY     85  69  58 W3        30.04S
PINEY ISLAND   CLEAR    N/A N/A N/A W3        30.03F
WILMINGTON     SUNNY     83  73  72 SE5       30.05S


$$

NCZ011>013-027>030-043-044-078>080-089-090>093-098-012300-
COASTAL PLAIN

CITY           SKY/WX    TMP DP  RH WIND       PRES   REMARKS
AHOSKIE        SUNNY     80  70  71 CALM      30.04S
CLINTON        SUNNY     87  71  58 CALM      30.05S
ELIZABETHTOWN  SUNNY     89  67  49 CALM      30.04S
GOLDSBORO      SUNNY     88  71  56 E5        30.03S
GREENVILLE     MOSUNNY   86  70  58 CALM      30.06S
HAVELOCK       MOSUNNY   86  69  56 NW6       30.04F
KENANSVILLE      N/A     84  70  63 CALM      30.05S
KINSTON        SUNNY     86  68  54 CALM      30.05S
NEW BERN       SUNNY     85  71  63 VRB3      30.05S
RICHLANDS      SUNNY     84  68  58 CALM      30.05R
ROCKY MOUNT    SUNNY     89  68  49 N3        30.04S
WASHINGTON     SUNNY     83  71  66 CALM      30.04S
WHITEVILLE     PTSUNNY   86  72  64 E3        30.04S

$$

AMZ130-135-150-152-154-156-158-170-250-252-270-ANZ085-086-088-633-658-670-012300-
MARINE OBSERVATIONS

STATION/POSITION TIME  TEMP    WIND        PRES    WAVE   SWELL
                       AIR SEA DIR/SP/G            HT/PER HT/PER
                 (UTC) (F)     (DEG/KT/KT) (MB)    (FT/S) (FT/S)
CHESAPEAKE LIGHT 2200   78      CALM  /  1 1017.8
64 E VA BEACH    2150   79 80  360/  4/  6 1016.5    2/ 8   2/ 8
DUCK             2200   83 81   70/  3/  4 1016.3
2 E DUCK         2111      82                N/A     1/10
OREGON INLET     2200   80 81   50/  3/  5 1017.1
13E OREGON INLT  2200      80                N/A     2/ 8
HATTERAS CG      2200   80 82   10/  6/  9 1017.0
DIAMOND BUOY     2150   80 84   10/  8/  8 1017.2    2/ 8   2/ 8
CAPE LOOKOUT     2200   81     230/  6/  9 1017.0
BEAUFORT LAB     2200   82 80  220/  6/ 10 1016.7
30 SE NEW RVR IN 2108   81 83  230/  6/  8 1018.2
30 SE NEW RVR IN 2125      83                N/A     3/ 7
27 SE WRIGHTSVLE 2200   78 83  210/  6/  8   N/A
5 SE WRIGHTSVLE  2108   81 83  200/  8/ 12 1017.8
225 S CAPE HAT   2150   84 85  240/  6/  8 1018.0    3/ 6   3/ 6
41 SE CHARLESTON 2150   82 83   90/  6/  6 1018.1    2/ 7   2/ 7

$$


USA.gov is the U.S. government's official web portal to all federal, state and local government web resources and services.